Temperature
14 14 13 13 13 13 14 14 14 15 15 14 14 14 14 14 15 15 15 15 15 15 15 15 15 15 15 15 15 15 16 16 16 16 16 16 16 16
14 14 13 13 14 14 13 14 14 14 14 14 14 14 14 14 14 14 14 15 15 15 15 15 15 15 15 15 15 15 15 15 15 15 15 15 15 15
13 13 13 13 13 13 13 13 13 13 13 13 14 13 13 14 14 14 14 14 14 15 15 15 15 15 15 15 15 15 15 15 15 15 15 15 15 15
13 13 13 13 13 13 13 13 13 13 13 13 13 13 13 13 14 14 14 14 14 15 15 15 15 15 15 15 15 15 15 15 15 15 15 15 15 15
13 13 13 13 13 13 13 13 13 13 13 13 13 13 13 13 13 14 14 14 14 14 14 15 15 15 15 15 15 15 15 15 15 15 15 15 15 15
13 13 13 13 12 12 12 12 12 12 12 12 12 13 13 13 13 13 13 13 13 13 14 14 14 14 14 15 15 15 15 15 15 15 14 14 14 15
12 12 12 12 12 12 12 12 12 12 12 12 12 12 12 12 12 12 12 13 13 13 13 13 13 14 14 14 14 14 14 14 14 14 14 14 14 14
12 12 12 12 12 12 12 12 12 12 12 11 11 11 11 11 12 12 12 12 12 12 13 13 13 13 13 13 14 14 14 14 14 14 14 14 14 14
11 11 11 11 11 11 11 11 11 11 11 11 11 11 11 11 11 11 11 11 12 12 12 12 12 13 13 13 13 13 14 14 14 14 14 14 14 14
11 11 11 11 11 11 11 11 11 11 11 11 10 10 11 11 11 10 10 11 11 11 11 11 12 12 12 12 13 13 13 13 13 13 13 13 13 13
10 10 10 10 11 11 10 10 10 10 10 11 11 11 11 11 11 10 10 10 10 11 11 11 11 11 11 12 12 12 13 13 13 13 13 13 13 13
10 10 10 10 10 10 10 10 10 10 10 10 10 10 10 10 10 10 10 10 10 10 10 10 10 10 11 11 11 11 12 12 12 12 12 12 13 12
10 10 10 10 10 10 10 9 9 9 9 9 9 9 9 9 9 9 9 9 9 9 10 9 9 9 9 10 10 11 11 11 11 11 12 12 12 12
9 9 9 10 10 9 9 9 9 9 9 9 9 9 9 9 9 9 9 9 9 9 9 9 9 9 9 9 10 10 10 10 10 11 11 11 11 12
9 9 9 9 9 9 9 9 9 8 8 8 8 8 8 8 8 8 8 8 8 8 8 8 8 8 8 8 9 9 9 10 10 10 10 10 10 11
9 9 9 9 9 8 8 8 8 8 8 8 7 8 8 7 7 7 7 7 8 8 8 8 8 8 8 8 8 8 8 9 9 10 10 10 10 10
8 8 8 8 8 8 8 8 8 7 7 7 7 7 7 7 7 7 7 7 7 7 7 7 8 8 8 8 8 8 8 8 8 9 9 9 9 10
8 7 7 7 7 7 7 7 7 7 7 7 7 7 6 6 6 6 6 6 6 6 6 7 7 7 7 7 8 8 8 8 8 8 8 8 9 9
7 7 7 7 7 7 7 7 7 6 6 6 6 6 6 6 6 6 6 6 6 6 6 6 6 6 6 7 7 7 7 7 7 7 8 8 8 8
7 7 6 6 6 6 6 6 6 6 6 6 6 6 6 6 5 5 5 5 5 5 5 5 5 6 6 6 6 6 7 7 7 7 7 7 7 8
6 6 6 6 6 6 6 6 5 5 5 5 5 5 5 5 5 5 5 5 5 5 5 5 5 5 5 5 5 6 6 6 6 6 6 6 7 7
6 6 6 6 5 5 5 5 5 5 5 5 5 5 5 5 4 4 4 4 4 4 4 4 4 4 5 5 5 5 5 6 6 6 6 6 6 6
6 5 5 5 5 5 5 5 4 4 4 4 4 4 4 4 4 4 4 4 3 3 3 3 4 4 4 4 4 4 4 5 5 5 5 6 6 6
Wind_Speed
3 3 3 3 3 3 2 3 3 3 3 3 3 5 5 6 7 5 3 5 4 3 2 1 0 1 1 2 3 3 4 5 7 8 9 10 10 10
3 3 3 3 3 2 2 2 2 3 3 3 3 4 5 5 5 5 4 2 1 1 1 1 0 1 2 2 3 4 4 5 6 6 7 8 9 9
3 3 3 3 2 2 2 2 2 2 3 3 3 4 5 5 5 5 4 3 1 2 1 1 1 1 2 3 4 5 6 6 6 7 8 10 10 10
3 3 3 3 3 3 3 3 3 3 3 4 4 4 5 5 5 5 4 4 3 1 1 1 2 2 3 4 4 5 6 6 7 8 10 11 12 12
4 4 4 4 4 4 3 3 3 3 3 4 4 4 4 5 5 4 4 3 4 1 2 2 3 4 5 6 6 7 6 7 8 9 10 11 12 13
4 4 5 5 5 5 4 4 4 4 3 4 4 4 4 5 5 4 4 4 4 3 2 3 3 6 7 8 8 8 8 8 9 9 10 11 12 13
4 4 5 6 8 6 5 5 5 4 3 4 4 4 4 5 5 5 5 5 5 3 4 4 4 4 5 8 9 8 9 10 11 11 12 13 14 14
4 4 3 3 3 2 3 5 6 5 5 4 4 5 6 6 5 6 6 6 5 3 5 6 5 5 5 6 6 8 10 11 12 13 13 14 15 15
4 4 4 4 5 5 3 4 3 2 5 6 6 6 7 7 7 7 7 7 7 6 7 7 6 7 6 7 7 10 12 12 13 13 14 14 15 16
3 4 4 5 6 8 7 6 6 5 4 6 7 7 7 8 8 9 9 9 8 6 6 8 7 7 7 8 9 12 13 13 14 15 15 15 16 16
3 4 5 5 6 8 8 7 7 6 4 6 8 9 10 10 9 7 8 8 8 7 6 7 8 8 8 8 8 11 13 14 15 16 16 16 16 16
3 3 2 5 7 8 8 7 8 8 8 8 8 8 9 7 7 8 7 8 8 8 6 6 8 8 7 7 7 8 10 13 15 16 17 17 16 13
4 4 4 3 7 8 9 8 8 10 10 9 8 7 7 6 6 7 7 7 9 9 8 8 9 9 9 9 10 9 9 9 9 11 15 17 16 14
5 5 5 5 8 9 8 7 9 10 8 8 8 7 7 7 7 8 9 10 10 12 12 11 10 10 11 12 11 10 9 9 9 10 10 11 15 17
6 6 8 9 9 8 7 9 9 8 7 8 8 8 8 8 8 8 10 10 12 12 13 12 11 11 11 12 12 11 11 10 10 10 10 9 9 9
6 6 8 9 9 8 8 7 7 6 7 8 9 9 8 8 8 8 9 9 10 10 11 12 12 12 11 12 12 12 11 10 9 9 9 9 9 9
8 7 7 7 7 6 6 7 7 7 7 8 9 9 9 9 9 8 8 9 10 11 11 9 10 10 12 12 12 12 11 11 11 10 10 10 10 9
8 7 8 8 8 8 8 8 8 8 8 8 9 9 9 9 9 9 9 10 11 11 11 10 10 10 10 11 11 12 12 11 11 10 10 10 11 9
7 8 8 8 8 8 8 9 9 9 9 9 9 9 9 10 10 10 9 10 11 11 11 10 10 11 12 14 11 10 11 11 10 11 10 10 11 9
7 8 8 8 8 8 8 9 9 9 9 9 9 9 9 10 10 10 10 11 11 12 12 11 11 11 12 14 13 12 11 12 11 11 11 9 9 8
8 8 8 8 8 8 9 9 9 9 10 10 9 10 10 10 10 11 11 12 12 12 12 12 11 12 12 11 12 13 11 11 12 11 11 10 9 8
8 9 9 9 9 9 9 9 9 9 10 10 10 10 10 10 11 12 11 12 11 12 13 12 12 11 11 12 14 15 14 11 10 11 12 12 10 9
9 9 9 9 9 9 9 10 11 10 10 10 10 10 10 11 11 11 12 12 12 13 13 12 11 11 11 12 13 13 15 13 10 9 9 10 13 14
Wind_Direction
21 23 16 17 7 1 343 326 329 332 357 17 8 12 4 6 1 349 3 44 24 26 36 27 149 225 269 235 206 202 201 204 206 205 204 205 208 211
15 7 4 357 360 348 333 328 318 314 321 348 349 352 357 351 6 354 1 34 50 32 16 6 233 221 233 239 234 220 218 226 223 213 211 214 218 220
23 18 10 7 355 354 347 338 330 319 307 318 336 345 348 350 354 347 341 332 24 103 340 294 270 265 258 251 243 232 226 226 229 228 225 223 225 226
24 20 17 19 10 6 353 345 343 329 309 315 322 336 340 345 341 333 335 339 333 81 230 270 266 258 256 250 242 236 230 227 230 232 230 230 230 229
29 27 23 18 12 14 355 351 344 337 321 306 319 329 325 337 332 328 324 326 317 302 214 219 240 251 250 246 241 237 234 234 235 236 237 234 232 231
34 31 26 19 9 2 354 351 341 333 327 316 316 323 327 334 326 327 325 326 310 303 315 286 254 244 240 239 238 235 234 237 241 239 237 237 236 235
35 35 37 34 20 5 355 347 342 331 329 326 321 322 328 333 334 327 319 316 306 293 300 290 279 271 256 238 234 237 244 245 244 242 240 239 239 238
24 20 27 32 18 6 354 339 335 333 332 323 316 317 321 327 326 316 314 310 306 307 301 295 285 277 271 263 244 239 245 248 248 245 245 244 242 241
2 4 4 4 344 345 319 252 268 268 293 305 309 314 314 318 314 308 305 301 297 302 299 289 285 279 276 270 245 242 244 246 247 249 250 248 247 243
347 344 342 349 2 341 329 328 327 324 312 302 308 309 311 312 305 297 295 290 287 284 283 283 287 285 285 279 249 239 240 243 247 250 250 249 248 245
333 337 336 336 6 329 316 318 317 318 298 278 289 287 287 283 285 288 289 287 290 291 286 281 288 292 287 277 261 237 241 244 245 246 247 248 248 247
313 309 350 332 339 323 311 311 311 317 313 304 286 279 283 281 262 275 287 288 290 290 288 286 289 294 288 277 275 270 258 249 246 246 245 244 243 245
307 305 320 331 313 310 301 303 315 310 303 301 299 298 297 296 294 292 292 288 287 284 290 291 288 285 280 284 285 278 273 271 262 256 246 241 236 234
302 306 321 326 303 295 295 306 303 295 293 296 296 296 297 299 298 298 293 286 280 282 287 283 281 281 282 282 283 281 276 273 269 268 264 246 236 233
298 318 313 302 292 280 273 279 281 285 292 293 293 294 295 295 295 293 290 288 285 282 281 278 275 275 275 276 280 281 282 279 271 267 264 260 256 247
292 287 270 272 270 277 280 275 278 286 288 289 290 291 292 289 287 289 290 291 289 287 282 280 279 276 274 275 277 278 278 277 273 270 266 265 260 254
305 295 293 296 294 290 289 288 285 283 281 283 286 289 290 288 288 289 287 287 286 289 291 287 281 277 272 275 274 272 275 276 276 271 266 264 261 255
291 288 291 293 294 294 294 292 289 287 287 287 286 287 287 288 288 288 286 285 285 286 288 291 291 288 283 271 253 267 271 274 276 275 269 265 265 260
278 285 289 294 294 293 294 294 293 292 291 287 285 286 287 287 287 286 286 286 285 285 287 287 286 284 284 285 279 252 267 276 277 274 267 263 264 263
281 286 289 292 294 293 292 292 292 292 291 290 289 288 287 288 288 286 285 286 286 286 285 283 280 278 278 284 288 283 261 267 272 272 270 269 271 273
284 285 288 289 291 293 293 291 290 290 290 290 289 288 287 287 287 288 288 286 284 283 282 282 283 281 281 283 281 277 276 263 264 267 271 269 269 268
283 284 286 288 290 291 291 289 288 286 287 287 288 287 286 285 286 286 288 288 285 283 285 285 287 284 278 275 278 281 282 281 269 259 256 259 257 255
283 285 286 286 287 288 288 287 285 285 287 289 288 286 285 285 285 284 282 282 284 284 285 285 285 282 279 277 279 279 279 280 278 277 273 260 251 253
Height
1551 1550 1549 1549 1548 1547 1547 1546 1547 1545 1545 1544 1543 1541 1540 1539 1537 1537 1537 1535 1535 1535 1535 1535 1535 1536 1536 1537 1538 1538 1539 1540 1542 1543 1545 1546 1548 1549
1551 1550 1549 1549 1548 1547 1547 1546 1546 1546 1545 1544 1542 1541 1539 1538 1537 1536 1536 1535 1534 1534 1534 1534 1535 1535 1535 1536 1536 1537 1538 1539 1540 1541 1542 1544 1545 1546
1552 1551 1550 1549 1548 1547 1546 1546 1545 1545 1544 1543 1542 1540 1539 1538 1536 1535 1535 1534 1534 1533 1533 1533 1533 1533 1533 1534 1534 1535 1536 1537 1538 1538 1539 1541 1542 1543
1552 1551 1550 1549 1548 1547 1546 1545 1544 1544 1543 1542 1541 1539 1538 1536 1535 1534 1533 1533 1532 1531 1531 1531 1531 1531 1531 1532 1532 1532 1533 1534 1535 1535 1536 1537 1538 1539
1552 1551 1550 1549 1548 1547 1546 1545 1544 1543 1542 1541 1539 1538 1536 1535 1533 1532 1532 1531 1530 1530 1529 1528 1528 1528 1528 1528 1529 1529 1530 1530 1531 1532 1532 1533 1534 1535
1551 1550 1549 1548 1547 1546 1545 1544 1543 1542 1541 1539 1538 1537 1535 1534 1532 1531 1530 1529 1528 1528 1527 1526 1525 1525 1525 1525 1525 1525 1526 1526 1527 1527 1528 1528 1529 1530
1551 1550 1548 1547 1546 1544 1544 1543 1542 1541 1540 1538 1537 1536 1535 1533 1531 1530 1528 1527 1526 1525 1524 1524 1523 1522 1522 1521 1521 1521 1521 1522 1522 1522 1523 1523 1524 1525
1550 1549 1548 1546 1545 1543 1542 1541 1540 1539 1538 1537 1536 1535 1533 1532 1530 1528 1527 1525 1524 1524 1522 1521 1520 1519 1518 1518 1517 1516 1516 1517 1517 1517 1517 1517 1518 1519
1549 1548 1547 1545 1544 1543 1541 1539 1538 1537 1536 1535 1534 1533 1531 1530 1528 1526 1525 1523 1522 1520 1519 1517 1517 1515 1514 1513 1512 1512 1511 1511 1511 1511 1511 1511 1512 1512
1548 1547 1546 1544 1542 1541 1540 1539 1537 1535 1534 1533 1532 1530 1528 1526 1525 1523 1522 1520 1518 1517 1516 1514 1512 1511 1510 1508 1507 1506 1506 1505 1505 1505 1505 1505 1505 1505
1546 1545 1543 1542 1540 1538 1537 1536 1535 1533 1531 1529 1527 1526 1524 1523 1521 1520 1518 1517 1515 1514 1513 1511 1508 1507 1505 1503 1502 1501 1500 1499 1499 1498 1498 1498 1498 1499
1545 1543 1541 1539 1538 1536 1535 1534 1532 1530 1528 1526 1524 1523 1521 1520 1518 1517 1515 1514 1511 1510 1509 1507 1504 1503 1500 1498 1497 1496 1494 1493 1492 1492 1492 1491 1492 1491
1542 1541 1539 1536 1534 1533 1531 1530 1528 1526 1524 1523 1521 1519 1517 1516 1514 1513 1511 1510 1508 1506 1505 1503 1500 1498 1496 1493 1491 1490 1489 1487 1486 1485 1484 1484 1484 1484
1539 1537 1535 1533 1531 1529 1527 1526 1524 1522 1520 1519 1517 1515 1513 1512 1510 1508 1506 1505 1503 1501 1499 1497 1495 1493 1491 1488 1485 1484 1483 1481 1480 1478 1477 1477 1476 1476
1535 1533 1531 1528 1526 1525 1523 1521 1520 1518 1517 1515 1513 1511 1509 1507 1505 1503 1501 1499 1497 1495 1493 1491 1489 1487 1485 1482 1479 1478 1476 1474 1473 1472 1470 1470 1469 1468
1531 1529 1526 1524 1522 1520 1518 1517 1516 1514 1512 1510 1508 1506 1504 1502 1500 1498 1495 1493 1491 1488 1487 1485 1483 1481 1478 1476 1473 1471 1469 1467 1466 1465 1463 1462 1461 1461
1527 1525 1523 1521 1518 1516 1514 1513 1511 1509 1507 1505 1503 1501 1499 1497 1495 1493 1490 1488 1486 1483 1480 1478 1477 1474 1472 1469 1466 1464 1462 1460 1459 1458 1456 1454 1453 1453
1523 1521 1519 1517 1514 1512 1510 1508 1506 1504 1502 1500 1498 1496 1494 1492 1489 1487 1485 1483 1480 1477 1475 1473 1470 1467 1464 1462 1461 1458 1456 1454 1452 1451 1449 1447 1445 1446
1519 1517 1515 1512 1510 1508 1505 1503 1501 1499 1497 1495 1493 1491 1489 1486 1484 1482 1479 1477 1474 1472 1469 1467 1465 1462 1458 1454 1452 1452 1450 1447 1445 1443 1442 1440 1438 1438
1515 1512 1510 1507 1505 1502 1500 1498 1496 1494 1492 1490 1487 1485 1483 1481 1478 1476 1473 1471 1468 1465 1463 1461 1459 1456 1453 1450 1446 1443 1442 1440 1438 1436 1434 1433 1431 1431
1510 1507 1505 1502 1500 1497 1494 1492 1490 1488 1486 1484 1481 1479 1477 1474 1472 1469 1467 1464 1461 1458 1456 1453 1451 1450 1446 1443 1439 1435 1434 1433 1431 1429 1428 1426 1424 1423
1504 1502 1499 1497 1494 1492 1489 1487 1484 1482 1480 1477 1475 1473 1470 1468 1465 1463 1460 1457 1454 1451 1449 1446 1444 1442 1439 1436 1432 1428 1426 1425 1423 1421 1420 1419 1417 1415
1498 1496 1493 1491 1488 1486 1483 1481 1478 1476 1474 1471 1468 1466 1463 1461 1458 1456 1453 1450 1447 1444 1441 1438 1436 1434 1431 1428 1425 1421 1418 1416 1414 1413 1411 1410 1410 1409